Regional Weather Roundup
Issued by NWS Mt. Holly, NJ

Home | Current Version | Previous Version | Text Only | Print | Product List | Glossary On
Versions: 1 2 3 4 5 6 7 8 9 10 11 12 13 14 15 16 17 18 19 20 21 22 23 24 25 26 27 28 29 30 31 32 33 34 35 36 37 38 39 40 41 42 43 44 45 46 47 48 49 50
000
ASUS41 KPHI 210311
RWRPHI

REGIONAL WEATHER ROUNDUP
NATIONAL WEATHER SERVICE MOUNT HOLLY NJ
1100 PM EDT MON APR 20 2015

NOTE:  "FAIR" INDICATES FEW OR NO CLOUDS BELOW 12,000 FEET WITH NO
SIGNIFICANT WEATHER AND/OR OBSTRUCTIONS TO VISIBILITY.

 * = STATION DOES NOT REPORT PRECIPITATION (E.G. RAIN, SNOW, ETC.)
        OR FOG.

NJZ015>026-210400-
SOUTHERN NEW JERSEY

CITY           SKY/WX    TMP DP  RH WIND       PRES   REMARKS
POMONA         CLOUDY    58  55  90 S12       29.59F
MILLVILLE      CLOUDY    62  58  86 VRB6      29.56F
WRIGHTSTOWN    CLOUDY    61  60  98 S8        29.53F
MOUNT HOLLY    CLOUDY    63  58  83 SE8       29.55F
TRENTON        CLOUDY    59  57  93 E6        29.55F

$$
NJZ001>014-210400-
NORTHERN NEW JERSEY

CITY           SKY/WX    TMP DP  RH WIND       PRES   REMARKS
SUSSEX         CLOUDY    54  52  93 NE6       29.60F FOG
ANDOVER*         N/A     55  54  96 CALM      29.59F
MORRISTOWN     FOG       57  55  94 NE3       29.60F VSB 1/4
NEWARK         FOG       53  53 100 E6        29.60F VSB 1/4
TETERBORO      FOG       54  53  97 NE7       29.60F VSB 1/2
CALDWELL       FOG       55  54  96 E8        29.61F VSB 1/2
SOMERVILLE     CLOUDY    58  55  90 CALM      29.56F FOG
ALLAIRE*       CLOUDY    55  52  88 S5        29.58F
TOMS RIVER*    CLOUDY    59  55  88 S9        29.59F

$$
PAZ043-044-047-054-055-060>062-066>071-210400-
EASTERN PENNSYLVANIA

CITY           SKY/WX    TMP DP  RH WIND       PRES   REMARKS
PHILADELPHIA   CLOUDY    68  60  75 S13G20    29.55F
NORTH PHILA    CLOUDY    67  58  72 S6        29.56F
BLUE BELL      CLOUDY    68  63  83 SE6       29.53F
DOYLESTOWN     CLOUDY    59  59 100 VRB3      29.54F
QUAKERTOWN*    CLOUDY    59  59 100 NE3       29.56S
POTTSTOWN      CLOUDY    64  62  93 CALM      29.53F
LANCASTER      CLOUDY    68  59  73 NW15      29.54R
COATESVILLE    LGT RAIN  66  54  63 S10G24    29.55S
READING        CLOUDY    64  60  87 SE5       29.51F
ALLENTOWN      CLOUDY    59  57  93 NE6       29.55F FOG
MOUNT POCONO   LGT RAIN  53  51  93 E9        29.57F VSB 1/4
HAZLETON       TSTM      57  55  94 N7        29.58S
WILKES BARRE   TSTM      57  53  86 MISG      29.60R FOG

$$
DEZALL-MDZ008-012-015-019-020-210400-
DELAWARE AND EASTERN MARYLAND

CITY           SKY/WX    TMP DP  RH WIND       PRES   REMARKS
WILMINGTON     TSTM      62  55  77 W9G26     29.58R
DOVER          CLOUDY    69  63  81 S13G18    29.53S
GEORGETOWN     CLOUDY    68  60  75 S15G22    29.60S
EASTON         CLOUDY    69  56  63 CALM      29.62R
PATUXENT       CLOUDY    71  61  70 SW9       29.57F
OCEAN CITY     CLOUDY    62  60  93 S8        29.63S
WALLOPS ISLAND CLOUDY    61  60  97 S14       29.63S
CAMBRIDGE      CLOUDY    72  63  73 S8        29.58S
SALISBURY      CLOUDY    68  60  75 S9        29.60F

$$
PAZ001-021-NYZ056-072-MDZ011-DCZ001-210400-
OTHER NEARBY LOCATIONS

CITY           SKY/WX    TMP DP  RH WIND       PRES   REMARKS
HARRISBURG     CLOUDY    59  54  83 NW10      29.53F
STATE COLLEGE  MOCLDY    53  51  92 CALM      29.55R
WILLIAMSPORT   RAIN      56  54  93 E9        29.53F
BINGHAMTON     TSTM      51  51 100 SW7       29.58R FOG
NEW YORK CITY  FOG       52  52 100 E3        29.64F VSB 1/2
BALTIMORE      CLOUDY    63  55  75 SE6       29.53F
WASHINGTON DC  MOCLDY    65  57  75 S10       29.55S

$$


USA.gov is the U.S. government's official web portal to all federal, state and local government web resources and services.